FDB563 OMDB-VGEG

Flight info

Callsign FDB563
Flight time N/A
Altitude 35000
Route IVURO M677 LALDO B505 NADSO B524 ALPOR M504 TELEM A791 SASRO/N0462F370 A791 CEA B465 CTG
Aircraft B738/M-SDE1E2E3FGHIJ1LM3ORVWXYZ/HB1

Departure

Time 2026-04-30 14:10
Airport Dubai International Airport (OMDB)

Arrival

Time N/A
Airport Shah Amanat International Airport (VGEG)
Time Latitude Longitude Altitude Speed Heading
2026-04-30 13:36 25.26325 55.36028 69 ft 0 kts 31°
2026-04-30 13:56 25.26323 55.36027 69 ft 1 kts 30°
2026-04-30 13:56 25.26310 55.36019 69 ft 2 kts 31°
2026-04-30 13:56 25.26297 55.36010 69 ft 2 kts 31°
2026-04-30 13:57 25.26284 55.36002 69 ft 2 kts 32°
2026-04-30 13:57 25.26273 55.35991 69 ft 2 kts 54°
2026-04-30 13:57 25.26266 55.35976 69 ft 2 kts 71°
2026-04-30 13:57 25.26263 55.35960 69 ft 2 kts 89°
2026-04-30 13:58 25.26265 55.35944 69 ft 2 kts 106°
2026-04-30 13:58 25.26279 55.35915 69 ft 2 kts 120°
2026-04-30 13:58 25.26287 55.35901 69 ft 2 kts 121°
2026-04-30 13:59 25.26295 55.35886 69 ft 2 kts 121°
2026-04-30 13:59 25.26303 55.35872 69 ft 2 kts 121°
2026-04-30 13:59 25.26310 55.35859 69 ft 1 kts 121°
2026-04-30 13:59 25.26311 55.35858 69 ft 0 kts 121°
2026-04-30 14:03 25.26310 55.35858 69 ft 0 kts 121°
2026-04-30 14:04 25.26294 55.35887 69 ft 8 kts 125°
2026-04-30 14:04 25.26248 55.35906 69 ft 6 kts 188°
2026-04-30 14:04 25.26192 55.35911 69 ft 10 kts 148°
2026-04-30 14:04 25.26144 55.35984 69 ft 13 kts 121°
2026-04-30 14:05 25.26089 55.36084 69 ft 17 kts 121°
2026-04-30 14:05 25.26020 55.36208 69 ft 20 kts 121°
2026-04-30 14:05 25.25942 55.36347 69 ft 20 kts 121°
2026-04-30 14:05 25.25870 55.36477 69 ft 19 kts 121°
2026-04-30 14:06 25.25804 55.36599 69 ft 17 kts 121°
2026-04-30 14:06 25.25651 55.36872 69 ft 21 kts 121°
2026-04-30 14:07 25.25489 55.37165 69 ft 23 kts 121°
2026-04-30 14:07 25.25405 55.37316 69 ft 22 kts 120°
2026-04-30 14:07 25.25327 55.37458 69 ft 21 kts 122°
2026-04-30 14:08 25.25159 55.37761 70 ft 22 kts 121°
2026-04-30 14:08 25.25079 55.37906 70 ft 21 kts 121°
2026-04-30 14:08 25.24944 55.38123 70 ft 9 kts 170°
2026-04-30 14:09 25.24884 55.38097 70 ft 11 kts 211°
2026-04-30 14:09 25.24820 55.38050 70 ft 9 kts 232°
2026-04-30 14:09 25.24851 55.37947 70 ft 9 kts 301°
2026-04-30 14:10 25.25014 55.37651 70 ft 83 kts 301°
2026-04-30 14:10 25.25442 55.36884 70 ft 150 kts 301°
2026-04-30 14:10 25.26083 55.35732 335 ft 185 kts 300°
2026-04-30 14:10 25.26714 55.34574 1255 ft 179 kts 302°
2026-04-30 14:11 25.27376 55.33396 1967 ft 186 kts 303°
2026-04-30 14:11 25.28053 55.32190 2643 ft 190 kts 303°
2026-04-30 14:11 25.28751 55.30951 3361 ft 192 kts 305°
2026-04-30 14:11 25.29684 55.29890 4030 ft 196 kts 328°
2026-04-30 14:12 25.31014 55.29470 4525 ft 212 kts 355°
2026-04-30 14:12 25.32567 55.29517 4937 ft 233 kts 359°
2026-04-30 14:12 25.34256 55.29589 5506 ft 247 kts 359°
2026-04-30 14:12 25.35403 55.29621 5980 ft 251 kts 358°
2026-04-30 14:13 25.37743 55.29677 7072 ft 254 kts 359°
2026-04-30 14:13 25.39498 55.29977 7784 ft 263 kts 17°
2026-04-30 14:13 25.41063 55.31079 8336 ft 280 kts 43°
2026-04-30 14:13 25.42360 55.32796 8823 ft 297 kts 51°
2026-04-30 14:14 25.43608 55.34673 9283 ft 313 kts 52°
2026-04-30 14:14 25.44931 55.36616 10015 ft 318 kts 51°
2026-04-30 14:14 25.46312 55.38571 10621 ft 329 kts 50°
2026-04-30 14:14 25.47778 55.40595 11047 ft 345 kts 50°
2026-04-30 14:15 25.49320 55.42722 11467 ft 361 kts 51°
2026-04-30 14:15 25.50728 55.45090 11845 ft 378 kts 63°
2026-04-30 14:15 25.51572 55.47867 12219 ft 393 kts 81°
2026-04-30 14:15 25.51654 55.50921 12729 ft 400 kts 97°
2026-04-30 14:16 25.51121 55.53947 13456 ft 400 kts 109°
2026-04-30 14:16 25.50047 55.56764 14092 ft 402 kts 120°
2026-04-30 14:16 25.48620 55.59445 14730 ft 405 kts 125°
2026-04-30 14:16 25.47063 55.62067 15320 ft 410 kts 127°
2026-04-30 14:17 25.45458 55.64648 15940 ft 414 kts 127°
2026-04-30 14:17 25.43837 55.67337 16493 ft 422 kts 124°
2026-04-30 14:17 25.42499 55.70255 17061 ft 430 kts 115°
2026-04-30 14:17 25.41530 55.73401 17602 ft 437 kts 108°
2026-04-30 14:18 25.40768 55.76678 18229 ft 441 kts 105°
2026-04-30 14:18 25.40109 55.79974 18780 ft 446 kts 103°
2026-04-30 14:18 25.38802 55.86755 19895 ft 454 kts 104°
2026-04-30 14:19 25.37415 55.93571 20986 ft 461 kts 104°
2026-04-30 14:19 25.36690 55.97031 21519 ft 465 kts 105°
2026-04-30 14:19 25.35944 56.00556 22063 ft 468 kts 105°
2026-04-30 14:20 25.35204 56.04023 22539 ft 473 kts 105°
2026-04-30 14:20 25.34442 56.07583 22992 ft 477 kts 105°
2026-04-30 14:20 25.32926 56.14761 23858 ft 484 kts 103°
2026-04-30 14:21 25.32358 56.18427 24284 ft 488 kts 99°
2026-04-30 14:21 25.31956 56.22178 24665 ft 493 kts 97°
2026-04-30 14:21 25.31379 56.29754 25461 ft 499 kts 96°
2026-04-30 14:22 25.31116 56.33588 25809 ft 503 kts 96°
2026-04-30 14:22 25.30572 56.41313 26528 ft 509 kts 95°
2026-04-30 14:22 25.30382 56.45266 26838 ft 514 kts 94°
2026-04-30 14:23 25.30197 56.53199 27545 ft 519 kts 92°
2026-04-30 14:23 25.29656 56.61158 28224 ft 519 kts 104°
2026-04-30 14:24 25.27525 56.68639 29341 ft 506 kts 116°
2026-04-30 14:24 25.26132 56.72208 29862 ft 503 kts 118°
2026-04-30 14:25 25.23243 56.79179 30788 ft 500 kts 119°
2026-04-30 14:25 25.20392 56.86139 31678 ft 498 kts 118°
2026-04-30 14:26 25.17611 56.93160 32611 ft 495 kts 117°
2026-04-30 14:26 25.16258 56.96643 33058 ft 494 kts 117°
2026-04-30 14:26 25.13564 57.03643 33884 ft 492 kts 117°
2026-04-30 14:27 25.12243 57.07094 34316 ft 491 kts 117°
2026-04-30 14:27 25.10923 57.10545 34682 ft 490 kts 117°
2026-04-30 14:27 25.09589 57.14030 34738 ft 494 kts 117°
2026-04-30 14:28 25.05601 57.24444 34734 ft 490 kts 117°
2026-04-30 14:28 25.02966 57.31310 34736 ft 490 kts 117°
2026-04-30 14:29 24.98085 57.43992 34731 ft 490 kts 117°
2026-04-30 14:31 24.91006 57.62319 34739 ft 488 kts 116°
2026-04-30 14:31 24.87009 57.72633 34740 ft 488 kts 117°
2026-04-30 14:32 24.83233 57.82983 34741 ft 490 kts 111°
2026-04-30 14:33 24.81465 57.90281 34740 ft 493 kts 106°
2026-04-30 14:33 24.79281 58.01339 34740 ft 493 kts 104°
2026-04-30 14:34 24.77841 58.08702 34737 ft 493 kts 105°
2026-04-30 14:34 24.76373 58.16040 34739 ft 493 kts 105°
2026-04-30 14:35 24.74131 58.27037 34729 ft 492 kts 105°
2026-04-30 14:36 24.72621 58.34378 34726 ft 493 kts 105°
2026-04-30 14:36 24.71111 58.41696 34725 ft 492 kts 105°
2026-04-30 14:37 24.69593 58.49029 34723 ft 492 kts 105°
2026-04-30 14:37 24.68086 58.56299 34722 ft 491 kts 105°
2026-04-30 14:38 24.66566 58.63611 34717 ft 492 kts 105°
2026-04-30 14:38 24.65035 58.70957 34716 ft 491 kts 105°
2026-04-30 14:39 24.63506 58.78276 34716 ft 491 kts 106°
2026-04-30 14:39 24.61976 58.85578 34720 ft 491 kts 106°
2026-04-30 14:40 24.59685 58.96476 34711 ft 491 kts 106°
2026-04-30 14:40 24.58137 59.03813 34708 ft 490 kts 106°
2026-04-30 14:41 24.56600 59.11086 34711 ft 491 kts 106°
2026-04-30 14:41 24.55056 59.18365 34719 ft 491 kts 106°
2026-04-30 14:42 24.53506 59.25664 34724 ft 491 kts 106°
2026-04-30 14:42 24.51959 59.32925 34724 ft 491 kts 106°
2026-04-30 14:43 24.50402 59.40213 34725 ft 489 kts 105°
2026-04-30 14:43 24.48849 59.47463 34723 ft 489 kts 106°
2026-04-30 14:44 24.47291 59.54716 34723 ft 489 kts 105°
2026-04-30 14:44 24.45726 59.61980 34725 ft 489 kts 105°
2026-04-30 14:45 24.44168 59.69205 34724 ft 487 kts 106°
2026-04-30 14:45 24.42604 59.76439 34721 ft 489 kts 106°
2026-04-30 14:46 24.41032 59.83688 34720 ft 489 kts 106°
2026-04-30 14:46 24.39458 59.90921 34715 ft 488 kts 106°
2026-04-30 14:47 24.37880 59.98163 34712 ft 487 kts 106°
2026-04-30 14:47 24.36297 60.05407 34708 ft 489 kts 106°
2026-04-30 14:48 24.34717 60.12624 34713 ft 487 kts 106°
2026-04-30 14:48 24.33140 60.19822 34711 ft 487 kts 106°
2026-04-30 14:49 24.31558 60.27029 34707 ft 486 kts 106°
2026-04-30 14:49 24.29983 60.34170 34705 ft 486 kts 106°
2026-04-30 14:50 24.27600 60.44953 34713 ft 486 kts 106°
2026-04-30 14:51 24.25209 60.55731 34716 ft 486 kts 106°
2026-04-30 14:52 24.22809 60.66529 34720 ft 486 kts 106°
2026-04-30 14:52 24.20407 60.77274 34718 ft 486 kts 107°
2026-04-30 14:53 24.17993 60.88070 34714 ft 485 kts 106°
2026-04-30 14:54 24.14790 61.02345 34716 ft 484 kts 106°
2026-04-30 14:55 24.12364 61.13121 34716 ft 484 kts 106°
2026-04-30 14:56 24.09143 61.27356 34718 ft 484 kts 106°
2026-04-30 14:57 24.07392 61.38267 34717 ft 487 kts 97°
2026-04-30 14:58 24.06537 61.52998 34719 ft 488 kts 95°
2026-04-30 14:58 24.05948 61.64075 34714 ft 488 kts 95°
2026-04-30 15:00 24.04845 61.82539 34714 ft 487 kts 96°
2026-04-30 15:01 24.03925 61.97296 34720 ft 485 kts 96°
2026-04-30 15:01 24.03229 62.08343 34715 ft 489 kts 96°
2026-04-30 15:02 24.02757 62.15771 34716 ft 487 kts 96°
2026-04-30 15:03 24.01568 62.34195 34724 ft 488 kts 96°
2026-04-30 15:04 24.00355 62.52665 34727 ft 488 kts 96°
2026-04-30 15:06 23.99122 62.71106 34734 ft 488 kts 96°
2026-04-30 15:07 23.98117 62.85896 34729 ft 487 kts 96°
2026-04-30 15:08 23.97104 63.00594 34719 ft 486 kts 96°
2026-04-30 15:09 23.95811 63.19039 34719 ft 487 kts 96°
2026-04-30 15:10 23.94762 63.33803 34717 ft 488 kts 96°
2026-04-30 15:11 23.94342 63.39659 34714 ft 488 kts 96°
2026-04-30 15:13 23.94285 63.40457 34714 ft 488 kts 96°
2026-04-30 15:14 23.94205 63.41566 34714 ft 488 kts 96°
2026-04-30 15:17 23.92699 63.62253 34720 ft 485 kts 96°
2026-04-30 15:19 23.90511 63.91649 34720 ft 487 kts 96°